• en France
  • Liste des pays
  • À 7 jours
  • Température de l'eau
  • Carte satellitaire
  • Carte météo
  • Widgets météo
  • user-avatar
    Se connecter

    Météo par heure à Ibadan

    Ce jour, 15 Novembre, Jeudi

    Heure Température Précipitation Vent Pression Humidité
    00:00 +25°C° 0 mm 0 m/s 741 mmHg 93%
    01:00 +24°C° 0 mm 0 m/s 741 mmHg 94%
    02:00 +24°C° 0 mm 0 m/s 741 mmHg 94%
    03:00 +24°C° 0 mm 0 m/s 741 mmHg 95%
    04:00 +24°C° 0 mm 0 m/s 741 mmHg 95%
    05:00 +24°C° 0 mm 0 m/s 741 mmHg 95%
    06:00 +24°C° 0 mm 0 m/s 741 mmHg 95%
    07:00 +26°C° 0 mm 0 m/s 741 mmHg 85%
    08:00 +30°C° 0 mm 1 m/s 742 mmHg 74%
    09:00 +32°C° 0 mm 1 m/s 742 mmHg 64%
    10:00 +35°C° 0 mm 1 m/s 742 mmHg 54%
    11:00 +35°C° 0 mm 0 m/s 742 mmHg 45%
    12:00 +38°C° 0 mm 0 m/s 741 mmHg 35%
    13:00 +37°C° 0 mm 0 m/s 741 mmHg 35%
    14:00 +39°C° 0 mm 1 m/s 740 mmHg 35%
    15:00 +37°C° 0 mm 1 m/s 739 mmHg 35%
    16:00 +36°C° 0 mm 2 m/s 739 mmHg 44%
    17:00 +32°C° 0 mm 2 m/s 740 mmHg 53%
    18:00 +30°C° 0 mm 2 m/s 740 mmHg 61%
    19:00 +30°C° 0 mm 2 m/s 741 mmHg 68%
    20:00 +29°C° 0 mm 2 m/s 741 mmHg 74%
    21:00 +28°C° 0 mm 2 m/s 742 mmHg 81%
    22:00 +27°C° 0.2 mm 1 m/s 742 mmHg 83%
    23:00 +27°C° 0.2 mm 1 m/s 742 mmHg 86%

    Demain, 16 Novembre, Vendredi

    Heure Température Précipitation Vent Pression Humidité
    00:00 +27°C° 0.2 mm 1 m/s 742 mmHg 88%
    01:00 +27°C° 0.1 mm 1 m/s 742 mmHg 90%
    02:00 +26°C° 0.1 mm 1 m/s 741 mmHg 91%
    03:00 +26°C° 0.1 mm 1 m/s 741 mmHg 92%
    04:00 +26°C° 0 mm 1 m/s 741 mmHg 92%
    05:00 +24°C° 0 mm 0 m/s 742 mmHg 92%
    06:00 +25°C° 0 mm 0 m/s 742 mmHg 92%
    07:00 +28°C° 0 mm 1 m/s 743 mmHg 84%
    08:00 +30°C° 0 mm 1 m/s 743 mmHg 76%
    09:00 +31°C° 0 mm 1 m/s 744 mmHg 67%
    10:00 +33°C° 0 mm 1 m/s 743 mmHg 61%
    11:00 +34°C° 0 mm 1 m/s 743 mmHg 54%
    12:00 +35°C° 0 mm 1 m/s 742 mmHg 48%
    13:00 +36°C° 0 mm 1 m/s 741 mmHg 46%
    14:00 +36°C° 0 mm 1 m/s 741 mmHg 45%
    15:00 +36°C° 0 mm 1 m/s 740 mmHg 44%
    16:00 +35°C° 0.1 mm 2 m/s 740 mmHg 52%
    17:00 +32°C° 0.1 mm 2 m/s 740 mmHg 61%
    18:00 +30°C° 0.1 mm 2 m/s 741 mmHg 69%
    19:00 +29°C° 0 mm 2 m/s 741 mmHg 75%
    20:00 +28°C° 0 mm 2 m/s 742 mmHg 80%
    21:00 +27°C° 0 mm 2 m/s 742 mmHg 86%
    22:00 +27°C° 0 mm 2 m/s 742 mmHg 88%
    23:00 +27°C° 0 mm 1 m/s 742 mmHg 90%

    Après-demain, 17 Novembre, Samedi

    Heure Température Précipitation Vent Pression Humidité
    00:00 +26°C° 0 mm 1 m/s 742 mmHg 92%
    01:00 +26°C° 0 mm 1 m/s 742 mmHg 94%
    02:00 +26°C° 0 mm 1 m/s 741 mmHg 95%
    03:00 +24°C° 0 mm 0 m/s 741 mmHg 96%
    04:00 +24°C° 0 mm 0 m/s 742 mmHg 96%
    05:00 +24°C° 0 mm 0 m/s 742 mmHg 96%
    06:00 +24°C° 0 mm 0 m/s 742 mmHg 96%
    07:00 +27°C° 0 mm 1 m/s 743 mmHg 86%
    08:00 +29°C° 0 mm 1 m/s 743 mmHg 76%
    09:00 +31°C° 0 mm 1 m/s 744 mmHg 67%
    10:00 +33°C° 0 mm 1 m/s 743 mmHg 59%
    11:00 +35°C° 0 mm 1 m/s 742 mmHg 51%
    12:00 +37°C° 0 mm 1 m/s 742 mmHg 43%
    13:00 +37°C° 0 mm 1 m/s 741 mmHg 43%
    14:00 +37°C° 0 mm 1 m/s 740 mmHg 42%
    15:00 +36°C° 0 mm 1 m/s 740 mmHg 41%
    16:00 +35°C° 0.1 mm 2 m/s 740 mmHg 50%
    17:00 +32°C° 0.1 mm 2 m/s 740 mmHg 59%
    18:00 +30°C° 0.1 mm 2 m/s 740 mmHg 68%
    19:00 +29°C° 0 mm 2 m/s 741 mmHg 74%
    20:00 +28°C° 0 mm 2 m/s 742 mmHg 79%
    21:00 +27°C° 0 mm 2 m/s 742 mmHg 85%
    22:00 +27°C° 0 mm 2 m/s 742 mmHg 86%
    23:00 +27°C° 0 mm 2 m/s 742 mmHg 88%

    18 Novembre, Dimanche

    Heure Température Précipitation Vent Pression Humidité
    00:00 +26°C° 0 mm 1 m/s 742 mmHg 90%
    01:00 +26°C° 0.6 mm 1 m/s 741 mmHg 91%
    02:00 +26°C° 0.6 mm 1 m/s 741 mmHg 92%
    03:00 +26°C° 0.6 mm 1 m/s 740 mmHg 93%
    04:00 +26°C° 0.3 mm 1 m/s 741 mmHg 94%
    05:00 +26°C° 0.3 mm 1 m/s 741 mmHg 94%
    06:00 +26°C° 0.3 mm 1 m/s 742 mmHg 95%
    07:00 +27°C° 0 mm 1 m/s 742 mmHg 86%
    08:00 +29°C° 0 mm 1 m/s 743 mmHg 78%
    09:00 +31°C° 0 mm 2 m/s 743 mmHg 69%
    10:00 +34°C° 0.1 mm 2 m/s 742 mmHg 62%
    11:00 +35°C° 0.1 mm 2 m/s 742 mmHg 54%
    12:00 +36°C° 0.1 mm 1 m/s 741 mmHg 47%
    13:00 +36°C° 0.4 mm 2 m/s 740 mmHg 52%
    14:00 +34°C° 0.4 mm 2 m/s 740 mmHg 57%
    15:00 +32°C° 0.4 mm 2 m/s 739 mmHg 62%
    16:00 +31°C° 0.1 mm 2 m/s 740 mmHg 69%
    17:00 +30°C° 0.1 mm 2 m/s 740 mmHg 75%
    18:00 +28°C° 0.1 mm 2 m/s 740 mmHg 81%
    19:00 +28°C° 0.2 mm 2 m/s 741 mmHg 84%
    20:00 +27°C° 0.2 mm 2 m/s 741 mmHg 87%
    21:00 +27°C° 0.2 mm 1 m/s 742 mmHg 91%
    22:00 +26°C° 0 mm 1 m/s 742 mmHg 92%
    23:00 +26°C° 0 mm 1 m/s 742 mmHg 93%

    19 Novembre, Lundi

    Heure Température Précipitation Vent Pression Humidité
    00:00 +26°C° 0 mm 1 m/s 741 mmHg 94%
    01:00 +26°C° 0 mm 1 m/s 741 mmHg 95%
    02:00 +26°C° 0 mm 1 m/s 740 mmHg 96%
    03:00 +25°C° 0 mm 1 m/s 740 mmHg 96%
    04:00 +25°C° 0 mm 1 m/s 740 mmHg 97%
    05:00 +25°C° 0 mm 1 m/s 741 mmHg 97%
    06:00 +23°C° 0 mm 0 m/s 741 mmHg 97%
    07:00 +27°C° 0.1 mm 1 m/s 742 mmHg 92%
    08:00 +28°C° 0.1 mm 1 m/s 742 mmHg 87%
    09:00 +29°C° 0.1 mm 1 m/s 743 mmHg 82%
    10:00 +31°C° 0 mm 1 m/s 742 mmHg 74%
    11:00 +32°C° 0 mm 1 m/s 741 mmHg 66%
    12:00 +34°C° 0 mm 1 m/s 741 mmHg 58%
    13:00 +34°C° 0.3 mm 1 m/s 740 mmHg 58%
    14:00 +34°C° 0.3 mm 1 m/s 740 mmHg 58%
    15:00 +34°C° 0.3 mm 1 m/s 739 mmHg 58%
    16:00 +32°C° 0.1 mm 1 m/s 739 mmHg 66%
    17:00 +30°C° 0.1 mm 2 m/s 740 mmHg 74%
    18:00 +28°C° 0.1 mm 2 m/s 740 mmHg 82%
    19:00 +28°C° 0 mm 2 m/s 741 mmHg 85%
    20:00 +27°C° 0 mm 2 m/s 741 mmHg 87%
    21:00 +27°C° 0 mm 2 m/s 742 mmHg 90%
    22:00 +27°C° 0.6 mm 2 m/s 742 mmHg 92%
    23:00 +26°C° 0.6 mm 1 m/s 741 mmHg 94%

    20 Novembre, Mardi

    Heure Température Précipitation Vent Pression Humidité
    00:00 +26°C° 0.6 mm 1 m/s 741 mmHg 96%
    01:00 +26°C° 0.1 mm 1 m/s 741 mmHg 96%
    02:00 +26°C° 0.1 mm 1 m/s 741 mmHg 96%
    03:00 +26°C° 0.1 mm 1 m/s 740 mmHg 96%
    04:00 +26°C° 0 mm 1 m/s 741 mmHg 96%
    05:00 +26°C° 0 mm 1 m/s 741 mmHg 96%
    06:00 +26°C° 0 mm 1 m/s 742 mmHg 96%
    07:00 +27°C° 0 mm 1 m/s 742 mmHg 89%
    08:00 +29°C° 0 mm 1 m/s 743 mmHg 81%
    09:00 +30°C° 0 mm 2 m/s 743 mmHg 74%
    10:00 +31°C° 0.1 mm 2 m/s 742 mmHg 68%
    11:00 +34°C° 0.1 mm 2 m/s 742 mmHg 63%
    12:00 +35°C° 0.1 mm 2 m/s 741 mmHg 58%
    13:00 +34°C° 0.4 mm 2 m/s 741 mmHg 59%
    14:00 +33°C° 0.4 mm 1 m/s 740 mmHg 61%
    15:00 +33°C° 0.4 mm 1 m/s 740 mmHg 62%
    16:00 +31°C° 0.1 mm 1 m/s 740 mmHg 68%
    17:00 +30°C° 0.1 mm 2 m/s 740 mmHg 74%
    18:00 +29°C° 0.1 mm 2 m/s 741 mmHg 80%
    19:00 +29°C° 0 mm 2 m/s 741 mmHg 82%
    20:00 +28°C° 0 mm 2 m/s 742 mmHg 85%
    21:00 +28°C° 0 mm 2 m/s 742 mmHg 88%
    22:00 +27°C° 0.1 mm 2 m/s 742 mmHg 90%
    23:00 +27°C° 0.1 mm 1 m/s 741 mmHg 92%
    Voir plus